This is the latest recevied weather packets stored in our database for station/object VK2OB. If no packets are shown the sender has not sent any weather packets the latest 10 day(s).
| Time | Temp. | Humidity | Pressure | Rain* | Wind** | Luminosity | Snow |
|---|---|---|---|---|---|---|---|
| 1778222714 | 20° C | 36% | 1016.8 hPa | 0 mm | - | - | - |
| 1778222416 | 20° C | 34% | 1016.8 hPa | 0 mm | - | - | - |
| 1778222117 | 20° C | 33% | 1016.6 hPa | 0 mm | - | - | - |
| 1778221818 | 20° C | 33% | 1016.5 hPa | 0 mm | - | - | - |
| 1778221513 | 20.56° C | 32% | 1016.4 hPa | 0 mm | - | - | - |
| 1778221061 | 20.56° C | 32% | 1016.3 hPa | 0 mm | - | - | - |
| 1778220762 | 20.56° C | 32% | 1016.3 hPa | 0 mm | - | - | - |
| 1778220457 | 20.56° C | 31% | 1016.2 hPa | 0 mm | - | - | - |
| 1778220005 | 20.56° C | 31% | 1016.1 hPa | 0 mm | - | - | - |
| 1778219706 | 20.56° C | 30% | 1016.1 hPa | 0 mm | - | - | - |
| 1778219407 | 21.11° C | 30% | 1016 hPa | 0 mm | - | - | - |
| 1778219108 | 21.11° C | 30% | 1016 hPa | 0 mm | - | - | - |
| 1778218802 | 21.11° C | 29% | 1015.9 hPa | 0 mm | - | - | - |
| 1778218348 | 21.11° C | 29% | 1015.9 hPa | 0 mm | - | - | - |
| 1778218050 | 21.11° C | 29% | 1015.9 hPa | 0 mm | - | - | - |
| 1778217751 | 21.67° C | 29% | 1015.8 hPa | 0 mm | - | - | - |
| 1778217452 | 21.67° C | 30% | 1015.8 hPa | 0 mm | - | - | - |
| 1778217153 | 21.67° C | 29% | 1015.7 hPa | 0 mm | - | - | - |
| 1778216854 | 21.67° C | 29% | 1015.6 hPa | 0 mm | - | - | - |
| 1778216555 | 22.22° C | 28% | 1015.6 hPa | 0 mm | - | - | - |
| 1778216256 | 21.67° C | 30% | 1015.8 hPa | 0 mm | - | - | - |
| 1778215957 | 21.67° C | 30% | 1015.7 hPa | 0 mm | - | - | - |
| 1778215657 | 21.67° C | 30% | 1015.6 hPa | 0 mm | - | - | - |
| 1778215358 | 21.11° C | 30% | 1015.6 hPa | 0 mm | - | - | - |
| 1778215059 | 21.67° C | 30% | 1015.7 hPa | 0 mm | - | - | - |
* Rain latest hour (hover to see other rain measurements)
** Current wind speed in m/s (hover to see current wind gust speed)